Погода в Фули

Вьетнам     20°32′28″N   105°55′01″E
темп.,
°C
ветер,
м/с
пор.,
м/с
влажн.,
%
обл.,
%
осадки,
мм/ч
давл.,
гПа
погр.,
м
13 июня, вс
вс1301:00+26св81587100 8.2 10001026
04:00+26в11208389 1.1 9991405
07:00+26вюв122086100 2.4 10011340
10:00+27юв5118698 5.7 1003776
13:00+31юв786754 6.4 10011354
16:00+30ююв676953 0.9 10001174
19:00+27ююв488342 1.6 1001392
22:00+26ю3786100 0.4 1003326
14 июня, пн
пн1401:00+26ююз3983100 0.5 1002376
04:00+24ююз2987100 0.0 1001318
07:00+26ююз488159 0.0 1003421
10:00+27ююз358087 0.0 1003418
13:00+31ююз346274 0.0 10001120
16:00+33ююз465611 0.0 9981480
19:00+29ю5117211 0.1 999389
22:00+27ююз4107443 0.0 1001318
15 июня, вт
вт1501:00+26ююз377985 0.0 999221
04:00+25ю368416 0.0 999138
07:00+28ююз357534 0.0 1000219
10:00+33юз34526 0.0 1000911
13:00+35юз454619 0.0 9981668
16:00+35юз344733 0.0 9971274
19:00+29ююв4107515 0.0 998340
22:00+28ююв258216 0.0 1000168
16 июня, ср
ср1601:00+28ю23815 0.0 99962
04:00+27ююз118174 0.0 99917
07:00+29юз127123 0.0 1001169
10:00+34з23495 0.0 10011063
13:00+37з344222 0.0 10002081
16:00+36ююв4346100 0.0 9981592
19:00+31ююв4107151 0.0 1000410
22:00+29ююв3778100 0.0 1001258
17 июня, чт
чт1701:00+28ююз237693 0.0 100078
04:00+28юз127993 0.0 100026
07:00+30юз1273100 0.0 1001184
10:00+35зюз244862 0.0 10021099
13:00+37зюз4541100 0.0 10002083
16:00+38ю1340100 0.0 9981828
19:00+31ююв4106710 0.0 1000353
22:00+30ю410660 0.0 1001311